Location: Newark
(8.3333°N, 39.1667°E)
Time: 22:17:55
(UTC+00:00)

Hubble Space Telescope - Visible Passes

Search period start: 13 October 2019 00:00
Search period end: 23 October 2019 00:00
Orbit: 536 x 540 km, 28.5° (Epoch: 13 October)

Date Brightness Start Highest point End Pass type
(mag) Time Alt. Az. Time Alt. Az. Time Alt. Az.
13 Oct 2.0 16:06:27 10° NNW 16:09:55 25° NNE 16:10:44 24° NE visible
14 Oct 1.6 15:55:38 10° NW 15:59:24 34° NNE 16:01:14 23° ENE visible
15 Oct 1.2 15:44:53 10° NW 15:48:52 46° NNE 15:51:51 16° E visible
15 Oct 3.8 17:26:27 10° W 17:27:14 14° W 17:27:14 14° W visible
16 Oct 0.8 15:34:13 10° NW 15:38:19 66° NNE 15:42:25 10° ESE visible
16 Oct 3.5 17:16:22 10° WSW 17:17:57 17° WSW 17:17:57 17° WSW visible
17 Oct 0.8 15:23:37 10° WNW 15:27:45 88° SSW 15:31:54 10° ESE visible
17 Oct 3.4 17:06:34 10° WSW 17:08:46 14° SSW 17:08:46 14° SSW visible
18 Oct 3.7 16:57:53 10° SW 16:58:18 10° SSW 16:58:44 10° SSW visible
22 Oct 1.6 02:38:35 10° SW 02:42:34 49° SSE 02:46:33 10° ENE visible
